Regional Weather Roundup
Issued by NWS Upton, NY

Current Version | Previous Version | Text Only | Print | Product List | Glossary Off
Versions: 1 2 3 4 5 6 7 8 9 10 11 12 13 14 15 16 17 18 19 20 21 22 23 24 25 26 27
000 ASUS41 KOKX 160708 RWROKX Regional Weather Roundup National Weather Service New York NY 200 AM EST TUE JAN 16 2018 Note: "FAIR" indicates few or no clouds below 12,000 feet with no significant weather and/or obstructions to visibility. NYZ071-072-176-178-NJZ106-104-160800- New York City Metro Area CITY SKY/WX TMP DP RH WIND PRES REMARKS Central Park CLOUDY 25 18 74 CALM 30.50S Bronx Bot Gard N/A 25 16 68 SE2 30.50S Bronx Lehman C N/A 25 16 68 N3 N/A LaGuardia Arpt CLOUDY 25 17 72 E9 30.49R WCI 15 Queens College N/A 25 21 86 E5 N/A WCI 19 Kennedy Intl CLOUDY 25 20 81 NE9 30.50F WCI 15 Breezy Point N/A N/A N/A N/A NE7 N/A Brooklyn Coll N/A 27 21 80 NE3 N/A Staten Island N/A 27 19 74 N2 N/A Newark/Liberty MOCLDY 23 17 78 N5 30.49S WCI 17 Teterboro FAIR 24 14 65 NE8 30.48F WCI 15 $$ NYZ177-179-078>081-160800- Long Island New York CITY SKY/WX TMP DP RH WIND PRES REMARKS Jones Beach N/A N/A N/A N/A NE9 N/A Wantagh N/A 27 21 80 NE5 N/A WCI 21 Matinecock Pt N/A N/A N/A N/A NE7 N/A Farmingdale CLOUDY 24 21 88 CALM 30.50R MacArthur/ISP CLOUDY 24 21 88 CALM 30.49R Shirley FAIR 18 16 92 CALM 30.50R Mt Sinai Harb N/A N/A N/A N/A E2 N/A Westhampton FAIR 15 12 88 CALM 30.51R East Hampton CLOUDY 25 20 81 CALM 30.48F Southold N/A 25 19 80 NE3 N/A Montauk N/A 31 24 75 NE9 30.49S WCI 23 $$ NYZ052-065-067-160800- Hudson Valley CITY SKY/WX TMP DP RH WIND PRES REMARKS White Plains MOCLDY 21 14 74 N3 30.45F Larchmont Harb N/A N/A N/A N/A N5 N/A Croton On Huds N/A N/A N/A N/A MISG N/A Somers N/A 21 14 73 E1 N/A Brewster N/A 21 14 73 E1 N/A Newburgh CLOUDY 21 16 79 CALM 30.47S Montgomery CLOUDY 21 12 68 CALM 30.46S Otisville N/A 21 16 79 N1 N/A Warwick N/A 19 16 86 NE1 N/A Suffern N/A 23 16 74 NE1 N/A Poughkeepsie CLOUDY 21 11 65 CALM 30.49R Albany CLOUDY 15 5 64 CALM 30.50R $$ NJZ001-105-106-008-010-013-015-019>022-104-160800- New Jersey CITY SKY/WX TMP DP RH WIND PRES REMARKS Newark/Liberty MOCLDY 23 17 78 N5 30.49S WCI 17 Teterboro FAIR 24 14 65 NE8 30.48F WCI 15 Caldwell CLOUDY 23 16 74 NE3 30.50R Somerville CLOUDY 23 19 85 CALM 30.48R Linden CLOUDY 26 18 73 CALM 30.50S Perth Amboy N/A N/A N/A N/A NE9 N/A Sussex CLOUDY 19 16 88 CALM 30.46S Andover N/A 19 14 81 NE3 30.45S Trenton CLOUDY 27 21 78 N3 30.47S Millville MOCLDY 28 26 92 N6 30.46F WCI 22 Atlantic City MOCLDY 25 23 92 W6 30.46S WCI 18 Wrightstown CLOUDY 28 24 86 NE7 30.44S WCI 20 Toms River CLOUDY 26 24 92 N3 30.47S Belmar CLOUDY 28 25 88 CALM 30.47F $$ PAZ047>061-062-071-160800- Eastern Pennsylvania CITY SKY/WX TMP DP RH WIND PRES REMARKS Philadelphia CLOUDY 30 23 75 CALM 30.49S Allentown CLOUDY 27 17 66 E5 30.46R WCI 22 Scranton CLOUDY 25 19 78 CALM 30.38S $$ CTZ002-004>006-009-010-012-RIZ004-006-007-MAZ004-011-015-160800- Southern New England In CT CITY SKY/WX TMP DP RH WIND PRES REMARKS Bradley Intl FAIR 20 9 62 N5 30.49F WCI 13 Hartford FAIR N/A N/A N/A N3 30.51R Danbury CLOUDY 20 13 74 CALM 30.48R Wtrbury/Oxford FAIR 16 8 71 CALM 30.45R Norwalk Harbor N/A N/A N/A N/A N8 N/A Bridgeport MOCLDY 20 11 68 NW6 30.50S WCI 12 Meriden FAIR 17 9 70 CALM 30.50R New Haven FAIR 18 8 65 CALM 30.49R Chester FAIR 21 16 79 CALM 30.46S Groton CLOUDY 24 15 68 NE7 30.48S WCI 16 Willimantic CLOUDY 23 13 65 N3 30.48F In RI CITY SKY/WX TMP DP RH WIND PRES REMARKS Providence CLOUDY 23 9 55 N7 30.50S WCI 15 Block Island CLOUDY 27 23 85 NE13 30.48R WCI 16 Westerly CLOUDY 25 19 78 N5 30.49S WCI 19 In MA CITY SKY/WX TMP DP RH WIND PRES REMARKS Boston CLOUDY 21 12 68 N8 30.51F WCI 11 Worcester CLOUDY 17 4 56 NE5 30.43F WCI 10 Westfield CLOUDY 20 7 57 N6 30.49S WCI 12 Provincetown CLOUDY 30 26 85 N13 30.48R WCI 20 Nantucket LGT SNOW 31 31 100 N16 30.44R FOG WCI 20 $$ ANZ330-335-338-340-345-350-353-355-160800- Coastal Marine Observations STATION/POSITION TIME SKY/WX TEMP WIND PRES VSBY WAVE AIR SEA DIR/SP/G HT/PER (UTC) (F) (DEG/KT/KT) (MB) (MI) (FT/S) NY Harb Entrance 0550 30 41 70/ 8/ 12 1031.9 4/ 9 20 S Fire Island 0550 31 40 80/ 8/ 14 1031.8 6/ 9 15 E Barnegat Li 0630 42 N/A 6/ 7 Hudson Canyon 0550 38 51 40/ 12/ 16 1030.6 7/ 9 Kings Point 0630 24 32 230/ 1/ 2 1033.7 Execution Rocks NOT AVBL Western LI Sound NOT AVBL Central LI Sound 0630 26 40/ 6/ 10 N/A 1 Robbins Reef 0636 25 80/ 8/ 10 1033.0 $$ >>>>>>>>>>>>>>>>>>>>>>>>>>>> KEY <<<<<<<<<<<<<<<<<<<<<<<<<<< > < > SKY/WX - Sky Condition/Present Weather < > TMP - Temperature in Fahrenheit < > DP - Dew Point in Fahrenheit < > RH - Relative Humidity in Percent < > WIND - Direction (from) and Speed in MPH < > PRES - Mean Sea Level Pressure (inches of Hg) < > WCI - Wind Chill Index < > VSB - Visibility in Miles < > HX - Heat Index < > TC - Temperature in Celsius < > VRB - Varibale Wind Direction < > < >>>>>>>>>>>>>>>>>>>>>>>>>>>> KEY <<<<<<<<<<<<<<<<<<<<<<<<<<<

USA.gov is the U.S. government's official web portal to all federal, state and local government web resources and services.